| time (UTC) | temp C | wind direction | speed KPH | gust KPH | rain 1hr cm | rain 24hr cm | rain mn cm | humidity % | barometer mb |
| 20260506020035 | 17 | 360 | 3.2 | 6.4 | 0.00 | 0.00 | 0.00 | 72 | 1015.0 |
| 20260506015539 | 17 | 338 | 3.2 | 4.8 | 0.00 | 0.00 | 0.00 | 73 | 1015.4 |
| 20260506015035 | 17 | 331 | 1.6 | 4.8 | 0.00 | 0.00 | 0.00 | 72 | 1015.0 |
| 20260506014537 | 17 | 324 | 1.6 | 4.8 | 0.00 | 0.00 | 0.00 | 72 | 1015.1 |
| 20260506014035 | 17 | 323 | 1.6 | 6.4 | 0.00 | 0.00 | 0.00 | 72 | 1015.1 |
| 20260506013534 | 17 | 322 | 1.6 | 6.4 | 0.00 | 0.00 | 0.00 | 72 | 1015.0 |
| 20260506013035 | 17 | 300 | 1.6 | 6.4 | 0.00 | 0.00 | 0.00 | 71 | 1015.0 |
| 20260506012534 | 17 | 300 | 3.2 | 6.4 | 0.00 | 0.00 | 0.00 | 71 | 1015.0 |
| 20260506012037 | 17 | 300 | 3.2 | 8.0 | 0.00 | 0.00 | 0.00 | 71 | 1015.2 |
| 20260506011534 | 17 | 311 | 1.6 | 8.0 | 0.00 | 0.00 | 0.00 | 70 | 1015.0 |
| 20260506011036 | 17 | 321 | 0.0 | 6.4 | 0.00 | 0.00 | 0.00 | 69 | 1015.2 |
| 20260506010535 | 17 | 322 | 3.2 | 8.0 | 0.00 | 0.00 | 0.00 | 69 | 1015.0 |
| 20260506010034 | 17 | 350 | 4.8 | 8.0 | 0.00 | 0.00 | 0.00 | 70 | 1015.2 |
| 20260506005533 | 17 | 334 | 1.6 | 6.4 | 0.00 | 0.00 | 0.00 | 69 | 1015.1 |
| 20260506005032 | 17 | 322 | 1.6 | 6.4 | 0.00 | 0.00 | 0.00 | 70 | 1015.2 |
| 20260506004532 | 17 | 309 | 1.6 | 6.4 | 0.00 | 0.00 | 0.00 | 70 | 1015.2 |
| 20260506004032 | 17 | 311 | 1.6 | 9.7 | 0.00 | 0.00 | 0.00 | 71 | 1015.2 |
| 20260506003532 | 17 | 349 | 4.8 | 9.7 | 0.00 | 0.00 | 0.00 | 71 | 1015.2 |
| 20260506003037 | 17 | 311 | 4.8 | 8.0 | 0.00 | 0.00 | 0.00 | 70 | 1015.1 |
| 20260506002531 | 17 | 323 | 0.0 | 6.4 | 0.00 | 0.00 | 0.00 | 71 | 1015.2 |
| 20260506002032 | 17 | 326 | 3.2 | 6.4 | 0.00 | 0.00 | 0.00 | 70 | 1015.3 |
| 20260506001537 | 17 | 321 | 3.2 | 9.7 | 0.00 | 0.00 | 0.00 | 70 | 1015.2 |
| 20260506001032 | 17 | 313 | 4.8 | 9.7 | 0.00 | 0.00 | 0.00 | 71 | 1015.2 |
| 20260506000531 | 17 | 302 | 4.8 | 9.7 | 0.00 | 0.00 | 0.00 | 72 | 1015.3 |
| 20260506000031 | 17 | 283 | 0.0 | 8.0 | 0.00 | 0.00 | 0.00 | 71 | 1015.3 |
| 20260505235531 | 17 | 286 | 1.6 | 8.0 | 0.00 | 0.00 | 0.00 | 70 | 1015.4 |
| 20260505235033 | 17 | 295 | 0.0 | 4.8 | 0.00 | 0.00 | 0.00 | 70 | 1015.4 |
| 20260505234535 | 17 | 296 | 1.6 | 6.4 | 0.00 | 0.00 | 0.00 | 70 | 1015.6 |
| 20260505234035 | 17 | 299 | 0.0 | 9.7 | 0.00 | 0.00 | 0.00 | 71 | 1015.5 |
| 20260505233530 | 17 | 304 | 3.2 | 9.7 | 0.00 | 0.00 | 0.00 | 71 | 1015.5 |
| 20260505233030 | 17 | 304 | 4.8 | 8.0 | 0.00 | 0.00 | 0.00 | 71 | 1015.5 |
| 20260505232530 | 17 | 302 | 3.2 | 8.0 | 0.00 | 0.00 | 0.00 | 71 | 1015.5 |
| 20260505232030 | 17 | 308 | 1.6 | 11.3 | 0.00 | 0.00 | 0.00 | 72 | 1015.6 |
| 20260505231530 | 17 | 296 | 4.8 | 11.3 | 0.00 | 0.00 | 0.00 | 72 | 1015.6 |
| 20260505231029 | 17 | 267 | 1.6 | 8.0 | 0.00 | 0.00 | 0.00 | 71 | 1015.6 |
| 20260505230528 | 17 | 271 | 1.6 | 8.0 | 0.00 | 0.00 | 0.00 | 71 | 1015.7 |
| 20260505230046 | 17 | 241 | 3.2 | 16.1 | 0.00 | 0.00 | 0.00 | 71 | 1015.6 |
| 20260505225528 | 17 | 294 | 8.0 | 16.1 | 0.00 | 0.00 | 0.00 | 70 | 1015.6 |
| 20260505225030 | 17 | 316 | 4.8 | 12.9 | 0.00 | 0.00 | 0.00 | 71 | 1015.6 |
| 20260505224529 | 17 | 291 | 1.6 | 6.4 | 0.00 | 0.00 | 0.00 | 71 | 1015.6 |
| 20260505224028 | 17 | 292 | 1.6 | 8.0 | 0.00 | 0.00 | 0.00 | 71 | 1015.7 |
| 20260505223532 | 17 | 239 | 3.2 | 8.0 | 0.00 | 0.00 | 0.00 | 71 | 1015.8 |
| 20260505223027 | 17 | 313 | 0.0 | 11.3 | 0.00 | 0.00 | 0.00 | 71 | 1015.8 |
| 20260505222530 | 17 | 306 | 6.4 | 11.3 | 0.00 | 0.00 | 0.00 | 71 | 1015.8 |
| 20260505222028 | 17 | 280 | 3.2 | 8.0 | 0.00 | 0.00 | 0.00 | 70 | 1015.7 |
| 20260505221528 | 17 | 289 | 3.2 | 11.3 | 0.00 | 0.00 | 0.00 | 70 | 1015.8 |
| 20260505221034 | 17 | 296 | 4.8 | 11.3 | 0.00 | 0.00 | 0.00 | 70 | 1015.8 |
| 20260505220526 | 17 | 301 | 3.2 | 11.3 | 0.00 | 0.00 | 0.00 | 70 | 1015.7 |
| 20260505220031 | 17 | 27 | 3.2 | 8.0 | 0.00 | 0.00 | 0.00 | 70 | 1015.8 |
| 20260505215529 | 17 | 10 | 3.2 | 12.9 | 0.00 | 0.00 | 0.00 | 70 | 1015.9 |
| 20260505215028 | 17 | 360 | 4.8 | 12.9 | 0.00 | 0.00 | 0.00 | 70 | 1015.9 |
| 20260505214527 | 17 | 324 | 0.0 | 3.2 | 0.00 | 0.00 | 0.00 | 71 | 1015.9 |
| 20260505214026 | 17 | 324 | 0.0 | 9.7 | 0.00 | 0.00 | 0.00 | 70 | 1016.0 |
| 20260505213525 | 17 | 324 | 3.2 | 9.7 | 0.00 | 0.00 | 0.00 | 70 | 1016.0 |
| 20260505213025 | 17 | 265 | 0.0 | 8.0 | 0.00 | 0.00 | 0.00 | 70 | 1015.9 |
| 20260505212529 | 17 | 248 | 3.2 | 8.0 | 0.00 | 0.00 | 0.00 | 70 | 1016.1 |
| 20260505212025 | 17 | 317 | 3.2 | 8.0 | 0.00 | 0.00 | 0.00 | 70 | 1015.9 |
| 20260505211624 | 17 | 12 | 1.6 | 8.0 | 0.00 | 0.00 | 0.00 | 71 | 1016.0 |
| 20260505211024 | 17 | 355 | 0.0 | 9.7 | 0.00 | 0.00 | 0.00 | 72 | 1016.0 |
| 20260505210523 | 17 | 355 | 4.8 | 12.9 | 0.00 | 0.00 | 0.00 | 73 | 1016.1 |
| 20260505210023 | 17 | 321 | 4.8 | 9.7 | 0.00 | 0.00 | 0.00 | 73 | 1016.2 |
| 20260505205522 | 17 | 163 | 0.0 | 8.0 | 0.00 | 0.00 | 0.00 | 71 | 1016.2 |
| 20260505205027 | 17 | 169 | 3.2 | 11.3 | 0.00 | 0.00 | 0.00 | 71 | 1016.2 |
| 20260505204524 | 17 | 166 | 8.0 | 11.3 | 0.00 | 0.00 | 0.00 | 71 | 1016.3 |
| 20260505204022 | 17 | 167 | 6.4 | 9.7 | 0.00 | 0.00 | 0.00 | 71 | 1016.3 |
| 20260505203521 | 17 | 211 | 1.6 | 8.0 | 0.00 | 0.00 | 0.00 | 75 | 1016.3 |
| 20260505203021 | 16 | 162 | 1.6 | 8.0 | 0.00 | 0.00 | 0.00 | 74 | 1016.4 |
| 20260505202521 | 16 | 157 | 1.6 | 8.0 | 0.00 | 0.00 | 0.00 | 72 | 1016.3 |
| 20260505202019 | 16 | 136 | 4.8 | 6.4 | 0.00 | 0.00 | 0.00 | 74 | 1016.5 |
| 20260505201518 | 16 | 240 | 0.0 | 4.8 | 0.00 | 0.00 | 0.00 | 73 | 1016.4 |
| 20260505201018 | 16 | 250 | 1.6 | 6.4 | 0.00 | 0.00 | 0.00 | 74 | 1016.4 |
| 20260505200517 | 16 | 293 | 1.6 | 8.0 | 0.00 | 0.00 | 0.00 | 74 | 1016.4 |
| 20260505200019 | 16 | 338 | 1.6 | 6.4 | 0.00 | 0.00 | 0.00 | 74 | 1016.5 |
| 20260505195519 | 16 | 340 | 1.6 | 6.4 | 0.00 | 0.00 | 0.00 | 73 | 1016.4 |
| 20260505195015 | 16 | 338 | 3.2 | 6.4 | 0.00 | 0.00 | 0.00 | 75 | 1016.4 |
| 20260505194513 | 16 | 326 | 3.2 | 4.8 | 0.00 | 0.00 | 0.00 | 75 | 1016.3 |
| 20260505194014 | 16 | 317 | 0.0 | 6.4 | 0.00 | 0.00 | 0.00 | 74 | 1016.5 |
| 20260505193513 | 16 | 317 | 3.2 | 6.4 | 0.00 | 0.00 | 0.00 | 75 | 1016.5 |
| 20260505193013 | 16 | 317 | 3.2 | 6.4 | 0.00 | 0.00 | 0.00 | 75 | 1016.5 |
| 20260505192516 | 16 | 336 | 1.6 | 6.4 | 0.00 | 0.00 | 0.00 | 75 | 1016.4 |
| 20260505192010 | 15 | 329 | 3.2 | 6.4 | 0.00 | 0.00 | 0.00 | 76 | 1016.5 |
| 20260505191510 | 15 | 325 | 0.0 | 6.4 | 0.00 | 0.00 | 0.00 | 76 | 1016.6 |
| 20260505191010 | 15 | 325 | 0.0 | 6.4 | 0.00 | 0.00 | 0.00 | 76 | 1016.6 |
| 20260505190508 | 15 | 184 | 0.0 | 4.8 | 0.00 | 0.00 | 0.00 | 77 | 1016.5 |
| 20260505190010 | 15 | 149 | 0.0 | 6.4 | 0.00 | 0.00 | 0.00 | 76 | 1016.6 |
| 20260505185508 | 15 | 144 | 1.6 | 8.0 | 0.00 | 0.00 | 0.00 | 76 | 1016.5 |
| 20260505185009 | 15 | 187 | 3.2 | 8.0 | 0.00 | 0.00 | 0.00 | 77 | 1016.6 |
| 20260505184508 | 15 | 169 | 0.0 | 8.0 | 0.00 | 0.00 | 0.00 | 77 | 1016.6 |
| 20260505184008 | 15 | 169 | 0.0 | 8.0 | 0.00 | 0.00 | 0.00 | 77 | 1016.6 |
| 20260505183507 | 15 | 168 | 0.0 | 8.0 | 0.00 | 0.00 | 0.00 | 77 | 1016.6 |
| 20260505183007 | 15 | 168 | 3.2 | 8.0 | 0.00 | 0.00 | 0.00 | 78 | 1016.5 |
| 20260505182509 | 15 | 171 | 1.6 | 4.8 | 0.00 | 0.00 | 0.00 | 78 | 1016.7 |
| 20260505182007 | 15 | 171 | 0.0 | 6.4 | 0.00 | 0.00 | 0.00 | 78 | 1016.6 |
| 20260505181507 | 15 | 172 | 3.2 | 8.0 | 0.00 | 0.00 | 0.00 | 77 | 1016.7 |
| 20260505181006 | 15 | 167 | 0.0 | 4.8 | 0.00 | 0.00 | 0.00 | 78 | 1016.6 |
| 20260505180507 | 15 | 166 | 0.0 | 12.9 | 0.00 | 0.00 | 0.00 | 77 | 1016.5 |
| 20260505180010 | 15 | 163 | 3.2 | 12.9 | 0.00 | 0.00 | 0.00 | 77 | 1016.4 |
| 20260505175505 | 15 | 158 | 4.8 | 8.0 | 0.00 | 0.00 | 0.00 | 78 | 1016.4 |
| 20260505175006 | 15 | 176 | 1.6 | 8.0 | 0.00 | 0.00 | 0.00 | 78 | 1016.5 |
| 20260505174506 | 15 | 171 | 4.8 | 8.0 | 0.00 | 0.00 | 0.00 | 77 | 1016.5 |
| 20260505174006 | 15 | 173 | 1.6 | 11.3 | 0.00 | 0.00 | 0.00 | 78 | 1016.4 |
| 20260505173506 | 15 | 167 | 6.4 | 11.3 | 0.00 | 0.00 | 0.00 | 77 | 1016.5 |
| 20260505173005 | 15 | 178 | 0.0 | 6.4 | 0.00 | 0.00 | 0.00 | 78 | 1016.3 |
| 20260505172510 | 14 | 180 | 1.6 | 6.4 | 0.00 | 0.00 | 0.00 | 77 | 1016.3 |
| 20260505172009 | 14 | 180 | 3.2 | 6.4 | 0.00 | 0.00 | 0.00 | 78 | 1016.3 |
| 20260505171505 | 14 | 191 | 1.6 | 6.4 | 0.00 | 0.00 | 0.00 | 77 | 1016.3 |
| 20260505171009 | 14 | 191 | 1.6 | 6.4 | 0.00 | 0.00 | 0.00 | 78 | 1016.3 |
| 20260505170504 | 14 | 204 | 3.2 | 6.4 | 0.00 | 0.00 | 0.00 | 79 | 1016.3 |
| 20260505170004 | 14 | 211 | 1.6 | 6.4 | 0.00 | 0.00 | 0.00 | 79 | 1016.4 |
| 20260505165504 | 14 | 239 | 1.6 | 6.4 | 0.00 | 0.00 | 0.00 | 80 | 1016.3 |
| 20260505165003 | 14 | 179 | 0.0 | 6.4 | 0.00 | 0.00 | 0.00 | 80 | 1016.2 |
| 20260505164504 | 13 | 178 | 0.0 | 3.2 | 0.00 | 0.00 | 0.00 | 80 | 1016.2 |
| 20260505164004 | 13 | 178 | 0.0 | 3.2 | 0.00 | 0.00 | 0.00 | 80 | 1016.1 |
| 20260505163509 | 13 | 178 | 0.0 | 0.0 | 0.00 | 0.00 | 0.00 | 81 | 1016.1 |
| 20260505163003 | 13 | 178 | 0.0 | 6.4 | 0.00 | 0.00 | 0.00 | 81 | 1016.0 |
| 20260505162502 | 13 | 178 | 0.0 | 6.4 | 0.00 | 0.00 | 0.00 | 82 | 1016.1 |
| 20260505162002 | 13 | 180 | 0.0 | 4.8 | 0.00 | 0.00 | 0.00 | 82 | 1016.0 |
| 20260505161503 | 13 | 180 | 0.0 | 4.8 | 0.00 | 0.00 | 0.00 | 82 | 1016.0 |
| 20260505161002 | 13 | 180 | 0.0 | 6.4 | 0.00 | 0.00 | 0.00 | 82 | 1016.1 |
| 20260505160501 | 13 | 180 | 1.6 | 6.4 | 0.00 | 0.00 | 0.00 | 83 | 1016.0 |
| 20260505160103 | 13 | 180 | 3.2 | 4.8 | 0.00 | 0.00 | 0.00 | 83 | 1016.0 |
| 20260505153100 | 12 | 172 | 4.8 | 9.7 | 0.00 | 0.00 | 0.00 | 84 | 1015.9 |
| 20260505152600 | 12 | 165 | 1.6 | 9.7 | 0.00 | 0.00 | 0.00 | 84 | 1015.9 |
| 20260505152103 | 12 | 155 | 3.2 | 8.0 | 0.00 | 0.00 | 0.00 | 84 | 1015.9 |
| 20260505151600 | 12 | 154 | 3.2 | 11.3 | 0.00 | 0.00 | 0.00 | 84 | 1016.0 |
| 20260505151059 | 12 | 139 | 4.8 | 11.3 | 0.00 | 0.00 | 0.00 | 84 | 1016.0 |
| 20260505150559 | 12 | 162 | 3.2 | 8.0 | 0.00 | 0.00 | 0.00 | 84 | 1016.0 |
| 20260505140553 | 12 | 151 | 3.2 | 12.9 | 0.00 | 0.00 | 0.00 | 84 | 1015.3 |
| 20260505124547 | 12 | 165 | 3.2 | 9.7 | 0.00 | 0.00 | 0.00 | 83 | 1015.0 |
| 20260505124046 | 12 | 157 | 4.8 | 9.7 | 0.00 | 0.00 | 0.00 | 83 | 1015.0 |
| 20260505123548 | 12 | 163 | 1.6 | 8.0 | 0.00 | 0.00 | 0.00 | 83 | 1015.0 |
| 20260505123046 | 12 | 160 | 3.2 | 8.0 | 0.00 | 0.00 | 0.00 | 83 | 1015.0 |
| 20260505122545 | 12 | 174 | 4.8 | 6.4 | 0.00 | 0.00 | 0.00 | 82 | 1015.1 |
| 20260505122044 | 12 | 177 | 1.6 | 6.4 | 0.00 | 0.00 | 0.00 | 82 | 1015.0 |
| 20260505121544 | 12 | 171 | 3.2 | 8.0 | 0.00 | 0.00 | 0.00 | 82 | 1015.0 |
| 20260505121044 | 12 | 182 | 1.6 | 8.0 | 0.00 | 0.00 | 0.00 | 82 | 1015.0 |
| 20260505120544 | 12 | 182 | 3.2 | 8.0 | 0.00 | 0.00 | 0.00 | 82 | 1015.0 |
| 20260505120043 | 12 | 174 | 3.2 | 11.3 | 0.00 | 0.00 | 0.00 | 82 | 1015.0 |
| 20260505115542 | 12 | 177 | 4.8 | 11.3 | 0.00 | 0.00 | 0.00 | 82 | 1014.8 |
| 20260505115042 | 12 | 139 | 1.6 | 8.0 | 0.00 | 0.00 | 0.00 | 82 | 1014.8 |
| 20260505114542 | 12 | 163 | 4.8 | 8.0 | 0.00 | 0.00 | 0.00 | 82 | 1014.8 |
| 20260505114041 | 12 | 168 | 4.8 | 8.0 | 0.00 | 0.00 | 0.00 | 82 | 1014.8 |
| 20260505113540 | 12 | 186 | 4.8 | 8.0 | 0.00 | 0.00 | 0.00 | 82 | 1014.7 |
| 20260505113048 | 12 | 157 | 1.6 | 4.8 | 0.00 | 0.00 | 0.00 | 82 | 1014.7 |
| 20260505112540 | 12 | 157 | 1.6 | 4.8 | 0.00 | 0.00 | 0.00 | 82 | 1014.8 |
| 20260505112042 | 12 | 157 | 0.0 | 8.0 | 0.00 | 0.00 | 0.00 | 82 | 1014.7 |
| 20260505111539 | 12 | 157 | 3.2 | 8.0 | 0.00 | 0.00 | 0.00 | 82 | 1014.7 |
| 20260505111039 | 12 | 156 | 3.2 | 9.7 | 0.00 | 0.00 | 0.00 | 82 | 1014.8 |
| 20260505110538 | 12 | 152 | 1.6 | 9.7 | 0.00 | 0.00 | 0.00 | 82 | 1014.6 |
| 20260505102032 | 13 | 176 | 1.6 | 8.0 | 0.00 | 0.00 | 0.00 | 81 | 1014.2 |
| 20260505101549 | 13 | 173 | 1.6 | 8.0 | 0.00 | 0.00 | 0.00 | 81 | 1014.3 |
| 20260505101034 | 13 | 170 | 3.2 | 6.4 | 0.00 | 0.00 | 0.00 | 81 | 1014.4 |
| 20260505100530 | 13 | 171 | 3.2 | 6.4 | 0.00 | 0.00 | 0.00 | 81 | 1014.4 |
| 20260505100053 | 13 | 171 | 0.0 | 4.8 | 0.00 | 0.00 | 0.00 | 81 | 1014.4 |
| 20260505095531 | 13 | 171 | 3.2 | 6.4 | 0.00 | 0.00 | 0.00 | 81 | 1014.3 |
| 20260505095028 | 13 | 171 | 1.6 | 6.4 | 0.00 | 0.00 | 0.00 | 81 | 1014.2 |
| 20260505094531 | 13 | 171 | 3.2 | 11.3 | 0.00 | 0.00 | 0.00 | 80 | 1014.1 |
| 20260505094028 | 13 | 169 | 3.2 | 11.3 | 0.00 | 0.00 | 0.00 | 80 | 1014.2 |
| 20260505093527 | 13 | 173 | 3.2 | 9.7 | 0.00 | 0.00 | 0.00 | 80 | 1014.2 |
| 20260505093026 | 13 | 162 | 3.2 | 9.7 | 0.00 | 0.00 | 0.00 | 80 | 1014.2 |
| 20260505092526 | 13 | 167 | 6.4 | 11.3 | 0.00 | 0.00 | 0.00 | 80 | 1014.1 |
| 20260505092024 | 13 | 171 | 1.6 | 6.4 | 0.00 | 0.00 | 0.00 | 79 | 1014.1 |
| 20260505091524 | 13 | 171 | 1.6 | 6.4 | 0.00 | 0.00 | 0.00 | 79 | 1014.0 |
| 20260505091023 | 13 | 169 | 0.0 | 6.4 | 0.00 | 0.00 | 0.00 | 79 | 1013.9 |
| 20260505090522 | 13 | 169 | 1.6 | 9.7 | 0.00 | 0.00 | 0.00 | 78 | 1013.8 |
| 20260505090021 | 13 | 159 | 4.8 | 8.0 | 0.00 | 0.00 | 0.00 | 79 | 1014.0 |
| 20260505085523 | 13 | 166 | 4.8 | 9.7 | 0.00 | 0.00 | 0.00 | 78 | 1013.8 |
| 20260505085020 | 13 | 145 | 3.2 | 6.4 | 0.00 | 0.00 | 0.00 | 78 | 1013.7 |
| 20260505084520 | 14 | 168 | 1.6 | 9.7 | 0.00 | 0.00 | 0.00 | 78 | 1013.7 |
| 20260505084020 | 14 | 167 | 4.8 | 9.7 | 0.00 | 0.00 | 0.00 | 78 | 1013.8 |
| 20260505083521 | 14 | 171 | 0.0 | 6.4 | 0.00 | 0.00 | 0.00 | 78 | 1013.7 |
| 20260505083023 | 14 | 171 | 1.6 | 8.0 | 0.00 | 0.00 | 0.00 | 77 | 1013.7 |
| 20260505082518 | 14 | 171 | 1.6 | 11.3 | 0.00 | 0.00 | 0.00 | 78 | 1013.6 |
| 20260505082018 | 14 | 170 | 3.2 | 6.4 | 0.00 | 0.00 | 0.00 | 78 | 1013.6 |
| 20260505081517 | 14 | 168 | 0.0 | 4.8 | 0.00 | 0.00 | 0.00 | 78 | 1013.6 |
| 20260505081017 | 14 | 168 | 1.6 | 9.7 | 0.00 | 0.00 | 0.00 | 78 | 1013.5 |
| 20260505080517 | 14 | 168 | 3.2 | 9.7 | 0.00 | 0.00 | 0.00 | 78 | 1013.6 |
| 20260505080019 | 14 | 165 | 1.6 | 9.7 | 0.00 | 0.00 | 0.00 | 78 | 1013.5 |
| 20260505075515 | 14 | 165 | 4.8 | 9.7 | 0.00 | 0.00 | 0.00 | 78 | 1013.5 |
| 20260505075015 | 14 | 182 | 3.2 | 6.4 | 0.00 | 0.00 | 0.00 | 78 | 1013.5 |
| 20260505074515 | 14 | 182 | 1.6 | 6.4 | 0.00 | 0.00 | 0.00 | 78 | 1013.4 |
| 20260505074014 | 14 | 184 | 0.0 | 6.4 | 0.00 | 0.00 | 0.00 | 77 | 1013.4 |
| 20260505073513 | 14 | 184 | 3.2 | 6.4 | 0.00 | 0.00 | 0.00 | 77 | 1013.3 |
| 20260505073030 | 14 | 186 | 1.6 | 6.4 | 0.00 | 0.00 | 0.00 | 77 | 1013.1 |
| 20260505072511 | 15 | 198 | 0.0 | 3.2 | 0.00 | 0.00 | 0.00 | 77 | 1013.1 |
| 20260505072010 | 15 | 198 | 0.0 | 3.2 | 0.00 | 0.00 | 0.00 | 76 | 1012.9 |
| 20260505071509 | 15 | 198 | 0.0 | 3.2 | 0.00 | 0.00 | 0.00 | 76 | 1012.9 |
| 20260505071010 | 15 | 198 | 0.0 | 8.0 | 0.00 | 0.00 | 0.00 | 76 | 1013.0 |
| 20260505070512 | 15 | 198 | 1.6 | 9.7 | 0.00 | 0.00 | 0.00 | 75 | 1012.9 |
| 20260505070012 | 15 | 165 | 4.8 | 11.3 | 0.00 | 0.00 | 0.00 | 75 | 1012.7 |
| 20260505065507 | 15 | 161 | 3.2 | 9.7 | 0.00 | 0.00 | 0.00 | 75 | 1012.7 |
| 20260505065006 | 16 | 165 | 4.8 | 9.7 | 0.00 | 0.00 | 0.00 | 75 | 1012.7 |
| 20260505064509 | 16 | 169 | 3.2 | 9.7 | 0.00 | 0.00 | 0.00 | 74 | 1012.6 |
| 20260505064006 | 16 | 135 | 3.2 | 9.7 | 0.00 | 0.00 | 0.00 | 73 | 1012.4 |
| 20260505063506 | 16 | 177 | 1.6 | 8.0 | 0.00 | 0.00 | 0.00 | 74 | 1012.4 |
| 20260505063006 | 16 | 179 | 1.6 | 8.0 | 0.00 | 0.00 | 0.00 | 73 | 1012.3 |
| 20260505062506 | 16 | 218 | 0.0 | 4.8 | 0.00 | 0.00 | 0.00 | 72 | 1012.2 |
| 20260505062010 | 17 | 218 | 0.0 | 8.0 | 0.00 | 0.00 | 0.00 | 72 | 1012.2 |
| 20260505061518 | 17 | 229 | 3.2 | 8.0 | 0.00 | 0.00 | 0.00 | 72 | 1012.1 |
| 20260505061005 | 17 | 262 | 0.0 | 4.8 | 0.00 | 0.00 | 0.00 | 72 | 1012.1 |
| 20260505060506 | 17 | 263 | 0.0 | 4.8 | 0.00 | 0.00 | 0.00 | 71 | 1012.0 |
| 20260505060005 | 17 | 263 | 0.0 | 4.8 | 0.00 | 0.00 | 0.00 | 71 | 1011.9 |
| 20260505055504 | 17 | 263 | 0.0 | 3.2 | 0.00 | 0.00 | 0.00 | 71 | 1011.9 |
| 20260505055007 | 17 | 264 | 0.0 | 6.4 | 0.00 | 0.00 | 0.00 | 70 | 1011.8 |
| 20260505054505 | 18 | 264 | 1.6 | 6.4 | 0.00 | 0.00 | 0.00 | 70 | 1011.7 |
| 20260505054005 | 18 | 254 | 0.0 | 8.0 | 0.00 | 0.00 | 0.00 | 70 | 1011.8 |
| 20260505053506 | 18 | 256 | 3.2 | 8.0 | 0.00 | 0.00 | 0.00 | 69 | 1011.9 |
| 20260505053007 | 18 | 248 | 3.2 | 11.3 | 0.00 | 0.00 | 0.00 | 69 | 1011.9 |
| 20260505052504 | 18 | 245 | 1.6 | 11.3 | 0.00 | 0.00 | 0.00 | 69 | 1011.8 |
| 20260505052009 | 18 | 274 | 1.6 | 6.4 | 0.00 | 0.00 | 0.00 | 69 | 1011.7 |
| 20260505051513 | 18 | 173 | 1.6 | 9.7 | 0.00 | 0.00 | 0.00 | 72 | 1011.8 |
| 20260505051006 | 18 | 171 | 6.4 | 9.7 | 0.00 | 0.00 | 0.00 | 73 | 1011.7 |
| 20260505050503 | 18 | 177 | 1.6 | 8.0 | 0.00 | 0.00 | 0.00 | 74 | 1011.6 |
| 20260505041505 | 18 | 162 | 0.0 | 1.6 | 0.00 | 0.00 | 0.00 | 75 | 1011.1 |
| 20260505041002 | 18 | 162 | 0.0 | 4.8 | 0.00 | 0.00 | 0.00 | 75 | 1011.0 |
| 20260505040501 | 18 | 162 | 1.6 | 4.8 | 0.00 | 0.00 | 0.00 | 75 | 1010.8 |
| 20260505040001 | 18 | 162 | 1.6 | 4.8 | 0.00 | 0.00 | 0.00 | 74 | 1010.7 |
| 20260505035500 | 19 | 162 | 1.6 | 4.8 | 0.00 | 0.00 | 0.00 | 74 | 1010.5 |
| 20260505035001 | 19 | 162 | 1.6 | 8.0 | 0.00 | 0.00 | 0.00 | 74 | 1010.5 |
| 20260505034500 | 19 | 162 | 1.6 | 8.0 | 0.00 | 0.00 | 0.00 | 73 | 1010.6 |
| 20260505034100 | 19 | 163 | 3.2 | 8.0 | 0.00 | 0.00 | 0.00 | 73 | 1010.4 |
| 20260505033601 | 20 | 165 | 1.6 | 4.8 | 0.00 | 0.00 | 0.00 | 72 | 1010.5 |
| 20260505033104 | 20 | 165 | 1.6 | 4.8 | 0.00 | 0.00 | 0.00 | 71 | 1010.4 |
| 20260505032601 | 20 | 165 | 1.6 | 4.8 | 0.00 | 0.00 | 0.00 | 71 | 1010.3 |
| 20260505032059 | 20 | 166 | 3.2 | 8.0 | 0.00 | 0.00 | 0.00 | 70 | 1010.1 |
| 20260505031600 | 20 | 169 | 3.2 | 8.0 | 0.00 | 0.00 | 0.00 | 70 | 1010.2 |
| 20260505031100 | 20 | 173 | 4.8 | 9.7 | 0.00 | 0.00 | 0.00 | 70 | 1010.2 |
| 20260505030558 | 20 | 163 | 4.8 | 14.5 | 0.00 | 0.00 | 0.00 | 69 | 1010.2 |
| 20260505030058 | 20 | 167 | 8.0 | 14.5 | 0.00 | 0.00 | 0.00 | 68 | 1010.0 |
| 20260505025558 | 21 | 171 | 6.4 | 12.9 | 0.00 | 0.00 | 0.00 | 68 | 1010.1 |
| 20260505025057 | 21 | 157 | 4.8 | 11.3 | 0.00 | 0.00 | 0.00 | 68 | 1010.0 |
| 20260505024558 | 21 | 169 | 4.8 | 9.7 | 0.00 | 0.00 | 0.00 | 68 | 1009.9 |
| 20260505024057 | 21 | 166 | 4.8 | 8.0 | 0.00 | 0.00 | 0.00 | 67 | 1009.8 |
| 20260505023557 | 21 | 172 | 4.8 | 8.0 | 0.00 | 0.00 | 0.00 | 67 | 1009.7 |
| 20260505023103 | 21 | 159 | 3.2 | 12.9 | 0.00 | 0.00 | 0.00 | 66 | 1009.8 |
| 20260505022557 | 21 | 162 | 6.4 | 12.9 | 0.00 | 0.00 | 0.00 | 66 | 1009.8 |
| 20260505022057 | 21 | 159 | 4.8 | 11.3 | 0.00 | 0.00 | 0.00 | 65 | 1009.7 |
| 20260505021557 | 21 | 172 | 3.2 | 12.9 | 0.00 | 0.00 | 0.00 | 66 | 1009.7 |
| 20260505021056 | 22 | 169 | 6.4 | 11.3 | 0.00 | 0.00 | 0.00 | 65 | 1009.6 |
| 20260505020555 | 22 | 173 | 4.8 | 11.3 | 0.00 | 0.00 | 0.00 | 64 | 1009.7 |